User: anonymous   Login
Location: Ottawa
(45.4170°N, 75.7000°W)
Time: 12:00:21
(UTC-04:00)
Language:

Aureole 3 Rocket - Orbit

View from above orbital plane
View from above orbital plane
View from above satellite
View from above satellite

Ground track
Ground track

The orbit data is extracted from the following two-line orbital elements,

1 12849U 81094B   16210.61072866  .00000372  00000-0  32956-4 0  9993
2 12849  82.4906  55.0015 0903888 204.8239 150.6754 13.49875331698268
Epoch (UTC): 28 July 2016 14:39:26
Eccentricity: 0.0903888
inclination: 82.4906°
perigee height: 399 km
apogee height: 1746 km
right ascension of ascending node: 55.0015°
argument of perigee: 204.8239°
revolutions per day: 13.49875331
mean anomaly at epoch: 150.6754°
orbit number at epoch: 69826

The dashed part of the orbit path shows where the satellite is in the earth's shadow,  

DLR